Flag for U.S.A. Weather past 2 weeks in Cape Canaveral, Florida, U.S.A.

Now
79 °F

Sunny.


Feels Like: 84 °F
Forecast: 74 / 86 °F
Wind: 6 mph from Southwest

Location: Cape Kennedy

Current Time: Jul 30, 2015 at 8:56:07 AM

Latest Report: Jul 30, 2015 at 7:58 AM


Visibility: 10 mi

Pressure: 29.98 "Hg

Humidity: 91%

Dew point: 76 °F

Location of Cape CanaveralLocation

Historic Weather in Cape Canaveral — Graph

°F

Cape Canaveral temperature yesterday

Maximum temperature yesterday: 92 °F (at 4:58 PM)
Minimum temperature yesterday: 77 °F (at 5:58 AM)
Average temperature yesterday: 82 °F

Past Weeks' High & Low Weather Summary

 TemperatureHumidityPressure
High94 °F (Jul 15, 1:58 PM)100% (Jul 21, 3:58 AM)30.07 "Hg (Jul 21, 3:58 AM)
Low72 °F (Jul 18, 6:58 AM)48% (Jul 15, 1:58 PM)29.84 "Hg (Jul 26, 3:58 AM)
Average81 °F84%29.97 "Hg
* Reported Jul 15 6:58 AM — Jul 30 6:58 AM, Cape Canaveral, Weather by CustomWeather, © 2015

Note: Actual official high and low records may vary slightly from our data, if they occured in-between our weather recording intervals... More about our weather records

Advertising

Cape Canaveral weather history for previous 24 hours

 ConditionsComfort  
Time TempWeatherWind HumidityBarometerVisibility
6:58 AM
Thu, Jul 30
75 °FClear.3 mph90%29.96 "Hg10 mi
5:58 AM76 °FClear.3 mph89%29.96 "Hg10 mi
4:58 AM77 °FClear.2 mph89%29.96 "Hg10 mi
3:58 AM77 °FClear.6 mph89%29.96 "Hg10 mi
2:58 AM77 °FClear.8 mph87%29.96 "Hg10 mi
1:58 AM78 °FClear.6 mph86%29.96 "Hg10 mi
12:58 AM79 °FClear.8 mph85%29.97 "Hg10 mi
11:58 PM
Wed, Jul 29
79 °FClear.7 mph84%29.97 "Hg10 mi
10:58 PM80 °FClear.5 mph82%29.97 "Hg10 mi
9:58 PM81 °FClear.13 mph77%29.95 "Hg10 mi
8:58 PM82 °FSunny.9 mph72%29.96 "Hg10 mi
7:58 PM85 °FPartly sunny.10 mph69%29.95 "Hg10 mi
6:58 PM89 °FScattered clouds.8 mph65%29.93 "Hg10 mi
5:58 PM88 °FSunny.9 mph69%29.92 "Hg10 mi
4:58 PM92 °FPassing clouds.9 mph56%29.93 "Hg10 mi
3:58 PM89 °FScattered clouds.5 mph65%29.95 "Hg10 mi
2:58 PM90 °FPassing clouds.5 mph65%29.96 "Hg10 mi
1:58 PM87 °FPassing clouds.5 mph71%29.96 "Hg10 mi
12:58 PM85 °FPassing clouds.6 mph75%29.98 "Hg10 mi
11:58 AM84 °FPassing clouds.8 mph80%29.98 "Hg10 mi
10:58 AM82 °FSunny.7 mph85%30.00 "Hg10 mi
9:58 AM80 °FPassing clouds.7 mph92%29.98 "Hg10 mi
8:58 AM79 °FSunny.6 mph92%29.96 "Hg10 mi
Weather by CustomWeather, © 2015

See weather overviewHow to use our weather pages